| time (UTC) | temp F | wind direction | speed MPH | gust MPH | rain 1hr in | rain 24hr in | rain mn in | humidity % | barometer mb |
| 20260508095017 | 46 | 0.0 | 1.0 | 0.01 | 0.01 | 0.01 | 87 | 1011.9 | |
| 20260508094017 | 47 | 0.0 | 3.0 | 0.01 | 0.01 | 0.01 | 86 | 1011.9 | |
| 20260508093037 | 47 | 270 | 3.0 | 7.0 | 0.01 | 0.01 | 0.01 | 83 | 1012.2 |
| 20260508092037 | 47 | 270 | 2.0 | 6.0 | 0.01 | 0.01 | 0.01 | 86 | 1012.2 |
| 20260508091017 | 46 | 270 | 2.0 | 10.0 | 0.01 | 0.01 | 0.01 | 87 | 1012.3 |
| 20260508090017 | 46 | 225 | 4.0 | 12.0 | 0.00 | 0.00 | 0.00 | 87 | 1012.4 |
| 20260508085037 | 45 | 0.0 | 1.0 | 0.00 | 0.00 | 0.00 | 86 | 1012.6 | |
| 20260508084017 | 45 | 0.0 | 2.0 | 0.00 | 0.00 | 0.00 | 85 | 1012.4 | |
| 20260508083017 | 45 | 0.0 | 4.0 | 0.00 | 0.00 | 0.00 | 86 | 1012.2 | |
| 20260508082017 | 44 | 0.0 | 1.0 | 0.00 | 0.00 | 0.00 | 87 | 1012.3 | |
| 20260508081017 | 44 | 0.0 | 0.0 | 0.00 | 0.00 | 0.00 | 86 | 1012.4 | |
| 20260508080017 | 45 | 0.0 | 0.0 | 0.00 | 0.00 | 0.00 | 86 | 1012.3 | |
| 20260508075017 | 45 | 0.0 | 0.0 | 0.00 | 0.00 | 0.00 | 86 | 1012.5 | |
| 20260508074017 | 46 | 0.0 | 0.0 | 0.00 | 0.00 | 0.00 | 85 | 1012.7 | |
| 20260508073017 | 46 | 0.0 | 1.0 | 0.00 | 0.00 | 0.00 | 85 | 1012.8 | |
| 20260508072037 | 46 | 0.0 | 0.0 | 0.00 | 0.00 | 0.00 | 85 | 1012.7 | |
| 20260508071017 | 46 | 0.0 | 0.0 | 0.00 | 0.00 | 0.00 | 85 | 1012.8 | |
| 20260508070051 | 47 | 0.0 | 2.0 | 0.00 | 0.00 | 0.00 | 84 | 1012.9 | |
| 20260508065018 | 47 | 0.0 | 5.0 | 0.00 | 0.00 | 0.00 | 84 | 1013.0 | |
| 20260508064017 | 47 | 248 | 1.0 | 7.0 | 0.00 | 0.00 | 0.00 | 82 | 1013.1 |
| 20260508063017 | 47 | 0.0 | 1.0 | 0.00 | 0.00 | 0.00 | 81 | 1012.8 | |
| 20260508062037 | 46 | 0.0 | 5.0 | 0.00 | 0.00 | 0.00 | 81 | 1012.8 | |
| 20260508061017 | 46 | 0.0 | 0.0 | 0.00 | 0.00 | 0.00 | 82 | 1012.9 | |
| 20260508060017 | 46 | 0.0 | 1.0 | 0.00 | 0.00 | 0.00 | 80 | 1012.7 | |
| 20260508055017 | 46 | 0.0 | 1.0 | 0.00 | 0.00 | 0.00 | 80 | 1012.8 | |
| 20260508054017 | 46 | 0.0 | 1.0 | 0.00 | 0.00 | 0.00 | 79 | 1013.0 | |
| 20260508053017 | 46 | 0.0 | 0.0 | 0.00 | 0.00 | 0.00 | 81 | 1013.0 | |
| 20260508052017 | 45 | 0.0 | 0.0 | 0.00 | 0.00 | 0.00 | 85 | 1013.1 | |
| 20260508051037 | 45 | 0.0 | 0.0 | 0.00 | 0.00 | 0.00 | 84 | 1013.1 | |
| 20260508050017 | 45 | 0.0 | 0.0 | 0.00 | 0.00 | 0.00 | 83 | 1013.0 | |
| 20260508045017 | 45 | 0.0 | 0.0 | 0.00 | 0.00 | 0.00 | 81 | 1013.1 | |
| 20260508044037 | 45 | 0.0 | 0.0 | 0.00 | 0.00 | 0.00 | 80 | 1013.0 | |
| 20260508043017 | 46 | 0.0 | 0.0 | 0.00 | 0.00 | 0.00 | 81 | 1013.0 | |
| 20260508042017 | 46 | 0.0 | 0.0 | 0.00 | 0.00 | 0.00 | 81 | 1013.1 | |
| 20260508041017 | 47 | 0.0 | 0.0 | 0.00 | 0.00 | 0.00 | 81 | 1013.5 | |
| 20260508040018 | 47 | 0.0 | 0.0 | 0.00 | 0.00 | 0.00 | 77 | 1013.6 | |
| 20260508035016 | 47 | 0.0 | 0.0 | 0.00 | 0.00 | 0.00 | 77 | 1013.5 | |
| 20260508034016 | 47 | 0.0 | 2.0 | 0.00 | 0.00 | 0.00 | 73 | 1013.6 | |
| 20260508033016 | 48 | 0.0 | 2.0 | 0.00 | 0.00 | 0.00 | 74 | 1013.6 | |
| 20260508032016 | 48 | 293 | 1.0 | 5.0 | 0.00 | 0.00 | 0.00 | 72 | 1013.7 |
| 20260508031036 | 47 | 293 | 1.0 | 7.0 | 0.00 | 0.00 | 0.00 | 74 | 1013.7 |
| 20260508030016 | 46 | 248 | 1.0 | 5.0 | 0.00 | 0.00 | 0.00 | 77 | 1013.5 |
| 20260508025016 | 45 | 0.0 | 0.0 | 0.00 | 0.00 | 0.00 | 80 | 1013.4 | |
| 20260508024016 | 43 | 0.0 | 0.0 | 0.00 | 0.00 | 0.00 | 83 | 1013.2 | |
| 20260508023016 | 43 | 0.0 | 0.0 | 0.00 | 0.00 | 0.00 | 78 | 1012.9 | |
| 20260508022016 | 43 | 0.0 | 0.0 | 0.00 | 0.00 | 0.00 | 80 | 1012.8 | |
| 20260508021016 | 43 | 0.0 | 0.0 | 0.00 | 0.00 | 0.00 | 78 | 1012.8 | |
| 20260508020016 | 43 | 0.0 | 0.0 | 0.00 | 0.00 | 0.00 | 78 | 1012.6 | |
| 20260508015016 | 44 | 0.0 | 0.0 | 0.00 | 0.00 | 0.00 | 78 | 1012.6 | |
| 20260508014016 | 44 | 0.0 | 0.0 | 0.00 | 0.00 | 0.00 | 76 | 1012.6 | |
| 20260508013016 | 45 | 0.0 | 0.0 | 0.00 | 0.00 | 0.00 | 75 | 1012.4 | |
| 20260508012016 | 45 | 0.0 | 0.0 | 0.00 | 0.00 | 0.00 | 72 | 1012.3 | |
| 20260508011016 | 46 | 0.0 | 0.0 | 0.00 | 0.00 | 0.00 | 70 | 1012.4 | |
| 20260508010016 | 47 | 0.0 | 0.0 | 0.00 | 0.00 | 0.00 | 70 | 1012.2 | |
| 20260508005016 | 48 | 0.0 | 0.0 | 0.00 | 0.00 | 0.00 | 67 | 1012.3 | |
| 20260508004036 | 49 | 0.0 | 0.0 | 0.00 | 0.00 | 0.00 | 62 | 1012.3 | |
| 20260508003016 | 50 | 0.0 | 0.0 | 0.00 | 0.00 | 0.00 | 59 | 1012.1 | |
| 20260508002016 | 51 | 0.0 | 0.0 | 0.00 | 0.00 | 0.00 | 55 | 1012.1 | |
| 20260508001015 | 52 | 0.0 | 0.0 | 0.00 | 0.00 | 0.00 | 55 | 1012.0 | |
| 20260508000015 | 53 | 0.0 | 1.0 | 0.00 | 0.00 | 0.00 | 54 | 1011.9 | |
| 20260507235016 | 54 | 293 | 1.0 | 4.0 | 0.00 | 0.00 | 0.00 | 50 | 1011.8 |
| 20260507234016 | 55 | 338 | 2.0 | 9.0 | 0.00 | 0.00 | 0.00 | 49 | 1011.8 |
| 20260507233015 | 56 | 0 | 1.0 | 5.0 | 0.00 | 0.00 | 0.00 | 49 | 1011.8 |
| 20260507232016 | 55 | 23 | 1.0 | 6.0 | 0.00 | 0.00 | 0.00 | 53 | 1011.6 |
| 20260507231015 | 54 | 0 | 4.0 | 7.0 | 0.00 | 0.00 | 0.00 | 52 | 1011.7 |
| 20260507230015 | 55 | 338 | 1.0 | 7.0 | 0.00 | 0.00 | 0.00 | 51 | 1011.8 |
| 20260507225036 | 54 | 0.0 | 4.0 | 0.00 | 0.00 | 0.00 | 50 | 1011.8 | |
| 20260507224016 | 54 | 23 | 3.0 | 7.0 | 0.00 | 0.00 | 0.00 | 49 | 1011.8 |
| 20260507223015 | 55 | 338 | 4.0 | 7.0 | 0.00 | 0.00 | 0.00 | 48 | 1011.8 |
| 20260507222015 | 55 | 338 | 2.0 | 6.0 | 0.00 | 0.00 | 0.00 | 54 | 1011.8 |
| 20260507221016 | 56 | 338 | 3.0 | 10.0 | 0.00 | 0.00 | 0.00 | 50 | 1011.8 |
| 20260507220015 | 56 | 270 | 5.0 | 12.0 | 0.00 | 0.00 | 0.00 | 47 | 1011.6 |
| 20260507215015 | 55 | 270 | 4.0 | 12.0 | 0.00 | 0.00 | 0.00 | 50 | 1011.6 |
| 20260507214018 | 55 | 338 | 1.0 | 6.0 | 0.00 | 0.00 | 0.00 | 48 | 1011.6 |
| 20260507213017 | 55 | 248 | 1.0 | 6.0 | 0.00 | 0.00 | 0.00 | 50 | 1011.4 |
| 20260507212017 | 56 | 270 | 3.0 | 10.0 | 0.00 | 0.00 | 0.00 | 50 | 1011.4 |
| 20260507211037 | 56 | 293 | 3.0 | 9.0 | 0.00 | 0.00 | 0.00 | 53 | 1011.5 |
| 20260507210017 | 56 | 270 | 5.0 | 13.0 | 0.00 | 0.00 | 0.00 | 51 | 1011.5 |
| 20260507205017 | 55 | 270 | 4.0 | 11.0 | 0.00 | 0.00 | 0.00 | 50 | 1011.5 |
| 20260507204017 | 56 | 293 | 4.0 | 11.0 | 0.00 | 0.00 | 0.00 | 51 | 1011.7 |
| 20260507203017 | 56 | 270 | 2.0 | 8.0 | 0.00 | 0.00 | 0.00 | 57 | 1011.4 |
| 20260507202017 | 56 | 270 | 5.0 | 13.0 | 0.00 | 0.00 | 0.00 | 53 | 1011.3 |
| 20260507201017 | 55 | 270 | 4.0 | 10.0 | 0.00 | 0.00 | 0.00 | 57 | 1011.5 |
| 20260507200017 | 55 | 270 | 5.0 | 13.0 | 0.00 | 0.00 | 0.00 | 53 | 1011.4 |
| 20260507195017 | 55 | 293 | 3.0 | 8.0 | 0.00 | 0.00 | 0.00 | 55 | 1011.4 |
| 20260507194017 | 56 | 270 | 2.0 | 10.0 | 0.00 | 0.00 | 0.00 | 55 | 1011.7 |
| 20260507193018 | 56 | 270 | 3.0 | 11.0 | 0.00 | 0.00 | 0.00 | 51 | 1011.7 |
| 20260507192017 | 56 | 248 | 3.0 | 9.0 | 0.00 | 0.00 | 0.00 | 54 | 1011.7 |
| 20260507191015 | 56 | 270 | 5.0 | 11.0 | 0.00 | 0.00 | 0.00 | 50 | 1011.8 |
| 20260507190017 | 57 | 270 | 2.0 | 10.0 | 0.00 | 0.00 | 0.00 | 50 | 1011.8 |
| 20260507185038 | 55 | 270 | 4.0 | 12.0 | 0.00 | 0.00 | 0.00 | 56 | 1011.7 |
| 20260507184057 | 56 | 293 | 4.0 | 9.0 | 0.00 | 0.00 | 0.00 | 54 | 1011.8 |
| 20260507183037 | 55 | 248 | 2.0 | 9.0 | 0.00 | 0.00 | 0.00 | 59 | 1011.8 |
| 20260507182017 | 55 | 270 | 4.0 | 13.0 | 0.00 | 0.00 | 0.00 | 56 | 1011.8 |
| 20260507181017 | 54 | 270 | 5.0 | 15.0 | 0.00 | 0.00 | 0.00 | 56 | 1011.9 |
| 20260507180017 | 54 | 270 | 3.0 | 10.0 | 0.00 | 0.00 | 0.00 | 54 | 1011.8 |
| 20260507175017 | 56 | 270 | 3.0 | 7.0 | 0.00 | 0.00 | 0.00 | 57 | 1012.0 |
| 20260507174017 | 55 | 270 | 4.0 | 10.0 | 0.00 | 0.00 | 0.00 | 56 | 1012.1 |
| 20260507173017 | 54 | 293 | 2.0 | 7.0 | 0.00 | 0.00 | 0.00 | 54 | 1012.1 |
| 20260507172022 | 57 | 270 | 2.0 | 7.0 | 0.00 | 0.00 | 0.00 | 52 | 1012.3 |
| 20260507171017 | 55 | 248 | 2.0 | 10.0 | 0.00 | 0.00 | 0.00 | 57 | 1012.2 |
| 20260507170017 | 56 | 315 | 3.0 | 9.0 | 0.00 | 0.00 | 0.00 | 53 | 1012.2 |
| 20260507165017 | 56 | 293 | 2.0 | 8.0 | 0.00 | 0.00 | 0.00 | 52 | 1012.1 |
| 20260507164017 | 55 | 270 | 3.0 | 9.0 | 0.00 | 0.00 | 0.00 | 54 | 1012.2 |
| 20260507163017 | 54 | 315 | 1.0 | 10.0 | 0.00 | 0.00 | 0.00 | 59 | 1012.3 |
| 20260507162037 | 55 | 270 | 1.0 | 4.0 | 0.00 | 0.00 | 0.00 | 57 | 1012.2 |
| 20260507161017 | 55 | 270 | 3.0 | 9.0 | 0.00 | 0.00 | 0.00 | 55 | 1012.3 |
| 20260507160017 | 55 | 270 | 4.0 | 11.0 | 0.00 | 0.00 | 0.00 | 56 | 1012.3 |
| 20260507155017 | 53 | 270 | 4.0 | 8.0 | 0.00 | 0.00 | 0.00 | 59 | 1012.2 |
| 20260507154017 | 54 | 23 | 3.0 | 8.0 | 0.00 | 0.00 | 0.00 | 57 | 1012.2 |
| 20260507153017 | 56 | 293 | 2.0 | 11.0 | 0.00 | 0.00 | 0.00 | 59 | 1012.3 |
| 20260507152017 | 54 | 293 | 3.0 | 8.0 | 0.00 | 0.00 | 0.00 | 58 | 1012.3 |
| 20260507151017 | 55 | 248 | 1.0 | 7.0 | 0.00 | 0.00 | 0.00 | 62 | 1012.4 |
| 20260507150037 | 54 | 293 | 3.0 | 6.0 | 0.00 | 0.00 | 0.00 | 58 | 1012.5 |
| 20260507145017 | 54 | 293 | 2.0 | 6.0 | 0.00 | 0.00 | 0.00 | 61 | 1012.6 |
| 20260507144017 | 53 | 293 | 2.0 | 8.0 | 0.00 | 0.00 | 0.00 | 67 | 1012.5 |
| 20260507143017 | 52 | 293 | 2.0 | 8.0 | 0.00 | 0.00 | 0.00 | 67 | 1012.5 |
| 20260507142017 | 52 | 293 | 2.0 | 5.0 | 0.00 | 0.00 | 0.00 | 69 | 1012.7 |
| 20260507141017 | 51 | 270 | 3.0 | 9.0 | 0.00 | 0.00 | 0.00 | 71 | 1012.7 |
| 20260507140017 | 50 | 270 | 2.0 | 5.0 | 0.00 | 0.00 | 0.00 | 74 | 1012.9 |
| 20260507135017 | 50 | 293 | 1.0 | 4.0 | 0.00 | 0.00 | 0.00 | 79 | 1012.8 |
| 20260507134017 | 49 | 0.0 | 3.0 | 0.00 | 0.00 | 0.00 | 81 | 1013.0 | |
| 20260507133017 | 48 | 293 | 1.0 | 4.0 | 0.00 | 0.00 | 0.00 | 82 | 1013.0 |
| 20260507132058 | 47 | 293 | 2.0 | 7.0 | 0.00 | 0.00 | 0.00 | 83 | 1013.0 |
| 20260507131017 | 47 | 293 | 1.0 | 4.0 | 0.00 | 0.00 | 0.00 | 85 | 1012.8 |
| 20260507130017 | 46 | 293 | 1.0 | 3.0 | 0.00 | 0.00 | 0.00 | 86 | 1012.8 |
| 20260507125037 | 46 | 293 | 1.0 | 4.0 | 0.00 | 0.00 | 0.00 | 87 | 1012.8 |
| 20260507124017 | 45 | 0.0 | 3.0 | 0.00 | 0.00 | 0.00 | 89 | 1012.9 | |
| 20260507123017 | 45 | 270 | 1.0 | 3.0 | 0.00 | 0.00 | 0.00 | 90 | 1012.7 |
| 20260507122017 | 44 | 0.0 | 0.0 | 0.00 | 0.00 | 0.00 | 92 | 1012.8 | |
| 20260507121017 | 43 | 0.0 | 0.0 | 0.00 | 0.00 | 0.00 | 94 | 1012.8 | |
| 20260507120037 | 42 | 0.0 | 0.0 | 0.00 | 0.00 | 0.00 | 95 | 1012.6 | |
| 20260507115017 | 41 | 0.0 | 0.0 | 0.00 | 0.00 | 0.00 | 95 | 1012.6 | |
| 20260507114017 | 41 | 0.0 | 1.0 | 0.00 | 0.00 | 0.00 | 97 | 1012.7 | |
| 20260507113017 | 40 | 0.0 | 0.0 | 0.00 | 0.00 | 0.00 | 97 | 1012.6 | |
| 20260507112037 | 39 | 0.0 | 0.0 | 0.00 | 0.00 | 0.00 | 97 | 1012.5 | |
| 20260507111037 | 38 | 0.0 | 0.0 | 0.00 | 0.00 | 0.00 | 97 | 1012.3 | |
| 20260507110037 | 37 | 0.0 | 0.0 | 0.00 | 0.00 | 0.00 | 97 | 1012.2 | |
| 20260507105017 | 37 | 0.0 | 0.0 | 0.00 | 0.00 | 0.00 | 96 | 1012.2 | |
| 20260507104017 | 37 | 0.0 | 0.0 | 0.00 | 0.00 | 0.00 | 96 | 1012.0 | |
| 20260507103017 | 37 | 0.0 | 0.0 | 0.00 | 0.00 | 0.00 | 96 | 1012.2 | |
| 20260507102016 | 36 | 0.0 | 0.0 | 0.00 | 0.00 | 0.00 | 96 | 1012.2 | |
| 20260507101057 | 37 | 0.0 | 0.0 | 0.00 | 0.00 | 0.00 | 96 | 1012.0 | |
| 20260507100017 | 37 | 0.0 | 0.0 | 0.00 | 0.00 | 0.00 | 96 | 1012.1 |